TimeHST,TemperatureF,Dew PointF,Humidity,Sea Level PressureIn,VisibilityMPH,Wind Direction,Wind SpeedMPH,Gust SpeedMPH,PrecipitationIn,Events,Conditions,WindDirDegrees,DateUTC
12:12 AM,68.0,64.4,88,30.13,10.0,WSW,5.8,-,N/A,,Mostly Cloudy,240,2012-11-14 10:12:00
12:53 AM,69.1,64.9,87,30.13,10.0,Calm,Calm,-,N/A,,Mostly Cloudy,0,2012-11-14 10:53:00
1:53 AM,66.9,64.0,90,30.11,10.0,WSW,5.8,-,N/A,,Partly Cloudy,240,2012-11-14 11:53:00
2:53 AM,66.9,63.0,87,30.11,6.0,Calm,Calm,-,0.00,Rain,Rain,0,2012-11-14 12:53:00
3:53 AM,66.9,64.0,90,30.13,5.0,ESE,9.2,-,0.06,Rain,Light Rain,120,2012-11-14 13:53:00
3:59 AM,66.2,64.4,94,30.12,1.8,Variable,4.6,-,0.04,Rain,Heavy Rain,0,2012-11-14 13:59:00
4:02 AM,66.2,64.4,94,30.12,2.0,WSW,6.9,-,0.16,Rain,Heavy Rain,250,2012-11-14 14:02:00
4:12 AM,66.2,64.4,94,30.12,10.0,WSW,5.8,-,0.20,Rain,Light Rain,240,2012-11-14 14:12:00
4:53 AM,66.9,64.0,90,30.13,10.0,NW,6.9,-,0.20,Rain,Light Rain,310,2012-11-14 14:53:00
5:53 AM,66.9,64.0,90,30.14,10.0,West,8.1,-,0.01,,Overcast,270,2012-11-14 15:53:00
6:53 AM,66.9,64.0,90,30.14,10.0,SW,5.8,-,N/A,,Mostly Cloudy,230,2012-11-14 16:53:00
7:53 AM,71.1,66.0,84,30.16,10.0,WSW,5.8,-,0.03,,Mostly Cloudy,250,2012-11-14 17:53:00
8:53 AM,75.9,66.9,74,30.16,10.0,NW,4.6,-,0.00,Rain,Light Rain,320,2012-11-14 18:53:00
9:53 AM,75.9,68.0,76,30.16,10.0,NNW,8.1,-,0.00,,Scattered Clouds,330,2012-11-14 19:53:00
10:53 AM,79.0,66.9,66,30.14,10.0,NNE,8.1,-,N/A,,Mostly Cloudy,20,2012-11-14 20:53:00
11:53 AM,80.1,66.9,64,30.12,10.0,NE,10.4,-,N/A,,Scattered Clouds,40,2012-11-14 21:53:00
12:53 PM,79.0,64.9,62,30.10,10.0,North,10.4,-,N/A,,Scattered Clouds,10,2012-11-14 22:53:00
1:53 PM,78.1,66.9,68,30.08,10.0,NNW,10.4,-,0.00,,Mostly Cloudy,330,2012-11-14 23:53:00
2:19 PM,78.8,66.2,65,30.08,10.0,NNE,9.2,-,N/A,,Mostly Cloudy,30,2012-11-15 00:19:00
2:30 PM,80.6,66.2,61,30.08,10.0,NNE,10.4,-,N/A,,Mostly Cloudy,30,2012-11-15 00:30:00
2:38 PM,73.4,66.2,78,30.08,1.8,North,8.1,21.9,0.00,Rain,Heavy Rain,350,2012-11-15 00:38:00
2:46 PM,73.4,66.2,78,30.08,7.0,Calm,Calm,-,0.08,Rain,Light Rain,0,2012-11-15 00:46:00
2:53 PM,75.0,66.0,73,30.08,10.0,NNW,3.5,-,0.08,,Overcast,340,2012-11-15 00:53:00
3:53 PM,77.0,66.9,71,30.08,10.0,NNE,10.4,-,N/A,,Partly Cloudy,30,2012-11-15 01:53:00
4:53 PM,75.0,63.0,66,30.09,10.0,NNE,6.9,-,N/A,,Clear,30,2012-11-15 02:53:00
5:53 PM,73.9,64.9,73,30.10,10.0,North,6.9,-,N/A,,Partly Cloudy,360,2012-11-15 03:53:00
6:53 PM,72.0,63.0,73,30.11,10.0,West,6.9,-,N/A,,Mostly Cloudy,280,2012-11-15 04:53:00
7:53 PM,69.1,61.0,75,30.12,4.0,Calm,Calm,-,0.00,Rain,Heavy Rain,0,2012-11-15 05:53:00
8:53 PM,68.0,63.0,84,30.12,10.0,Calm,Calm,-,0.03,,Overcast,0,2012-11-15 06:53:00
9:27 PM,69.8,64.4,83,30.13,10.0,West,9.2,-,0.00,,Mostly Cloudy,270,2012-11-15 07:27:00
9:34 PM,69.8,64.4,83,30.13,10.0,West,5.8,-,0.00,,Mostly Cloudy,280,2012-11-15 07:34:00
9:44 PM,69.8,64.4,83,30.13,4.0,WNW,8.1,-,0.03,Rain,Light Rain,290,2012-11-15 07:44:00
9:53 PM,69.1,64.0,84,30.13,10.0,West,4.6,-,0.05,,Mostly Cloudy,280,2012-11-15 07:53:00
10:06 PM,68.0,64.4,88,30.13,10.0,SW,5.8,-,N/A,,Mostly Cloudy,220,2012-11-15 08:06:00
10:18 PM,68.0,64.4,88,30.14,3.0,West,4.6,-,0.00,Rain,Heavy Rain,270,2012-11-15 08:18:00
10:53 PM,68.0,64.9,90,30.14,10.0,SW,5.8,-,0.04,,Overcast,230,2012-11-15 08:53:00
11:28 PM,68.0,64.4,88,30.13,10.0,SW,5.8,-,0.00,,Mostly Cloudy,230,2012-11-15 09:28:00
11:49 PM,68.0,64.4,88,30.13,4.0,SW,3.5,-,0.00,Rain,Heavy Rain,230,2012-11-15 09:49:00
11:53 PM,68.0,64.9,90,30.13,4.0,West,8.1,-,0.02,Rain,Rain,270,2012-11-15 09:53:00